Location: Rimini
(44.0630°N, 12.5810°E)
Time: 09:43:27
(UTC+02:00)

ISS - Visible Passes

Search period start: 08 May 2021 00:00
Search period end: 18 May 2021 00:00
Orbit: 418 x 421 km, 51.6° (Epoch: 08 May)

Date Brightness Start Highest point End Pass type
(mag) Time Alt. Az. Time Alt. Az. Time Alt. Az.
08 May -2.0 02:49:24 30° NNW 02:49:24 30° NNW 02:52:20 10° NE visible
08 May -1.4 04:24:04 10° NW 04:26:47 22° N 04:29:32 10° ENE visible
09 May -1.3 02:03:27 22° NE 02:03:27 22° NE 02:04:56 10° NE visible
09 May -1.3 03:36:28 10° NW 03:39:10 22° N 03:41:53 10° NE visible
09 May -1.9 05:13:32 10° NW 05:16:40 33° NNE 05:19:46 10° E visible
10 May -0.6 01:17:27 11° NE 01:17:27 11° NE 01:17:32 10° NE visible
10 May -1.5 02:50:22 19° NW 02:51:33 23° N 02:54:20 10° NE visible
10 May -1.6 04:26:08 10° NW 04:29:05 27° NNE 04:32:03 10° ENE visible
11 May -1.5 02:04:21 25° N 02:04:21 25° N 02:06:50 10° NE visible
11 May -1.4 03:38:40 10° NW 03:41:29 24° N 03:44:19 10° ENE visible
11 May -3.2 05:15:24 10° NW 05:18:45 64° NNE 05:22:07 10° ESE visible
12 May -1.0 01:18:16 18° NE 01:18:16 18° NE 01:19:24 10° NE visible
12 May -1.2 02:51:12 10° NW 02:53:53 22° N 02:56:37 10° ENE visible
12 May -2.5 04:28:00 10° NW 04:31:16 44° NNE 04:34:32 10° E visible
13 May -1.2 02:05:02 18° NNW 02:06:15 22° N 02:08:58 10° NE visible
13 May -2.0 03:40:37 10° NW 03:43:44 33° NNE 03:46:51 10° E visible
14 May -1.3 01:18:39 23° N 01:18:39 23° N 01:21:23 10° NE visible
14 May -1.6 02:53:12 10° NW 02:56:10 27° NNE 02:59:07 10° ENE visible
14 May -3.8 04:29:53 10° WNW 04:33:16 82° SSW 04:36:39 10° SE visible
14 May -2.0 21:15:26 10° S 21:17:25 15° SE 21:19:25 10° E visible
14 May -3.8 22:50:27 10° WSW 22:53:50 80° NNW 22:55:40 25° NE visible
15 May -1.5 00:28:08 10° WNW 00:31:01 25° NNW 00:33:54 10° NE visible
15 May -1.3 02:05:44 10° NW 02:08:34 24° N 02:11:23 10° ENE visible
15 May -3.4 03:42:28 10° NW 03:45:50 65° NNE 03:49:11 10° ESE visible
15 May -3.9 22:03:04 10° SW 22:06:24 65° SE 22:09:45 10° ENE visible
15 May -1.8 23:40:24 10° W 23:43:25 30° NNW 23:46:28 10° NE visible
16 May -1.2 01:18:13 10° NW 01:20:57 22° N 01:23:40 10° ENE visible
16 May -2.6 02:55:04 10° NW 02:58:20 44° NNE 03:01:35 10° E visible
16 May -3.0 04:32:02 10° WNW 04:35:04 30° SW 04:38:04 10° SSE visible
16 May -3.3 21:15:53 10° SSW 21:19:02 39° SE 21:22:12 10° ENE visible
16 May -2.2 22:52:41 10° W 22:55:52 38° NNW 22:59:03 10° NE visible
17 May -1.2 00:30:36 10° NW 00:33:18 22° N 00:36:00 10° NE visible
17 May -2.0 02:07:40 10° NW 02:10:47 33° NNE 02:13:54 10° E visible
17 May -3.7 03:45:05 15° WNW 03:47:43 50° SW 03:51:00 10° SE visible
17 May -2.9 22:05:03 10° WSW 22:08:20 53° NNW 22:11:40 10° NE visible
17 May -1.2 23:42:55 10° WNW 23:45:40 23° N 23:48:26 10° NE visible
